User: anonymous   Login
Location: Stillwell
(40.4602°N, 82.0928°W)
Time: 17:26:53
(UTC-05:00)
Language:

Cosmos 2333 Rocket - Orbit

View from above orbital plane
View from above orbital plane
View from above satellite
View from above satellite

Ground track
Ground track

The orbit data is extracted from the following two-line orbital elements,

1 24298U 96051B   17326.78320107 -.00000155 +00000-0 -57614-4 0  9993
2 24298 070.8466 087.8762 0017759 299.1277 060.8065 14.12482488093955
Epoch (UTC): 22 November 2017 18:47:48
Eccentricity: 0.0017759
inclination: 70.8466°
perigee height: 838 km
apogee height: 864 km
right ascension of ascending node: 87.8762°
argument of perigee: 299.1277°
revolutions per day: 14.12482488
mean anomaly at epoch: 60.8065°
orbit number at epoch: 9395

The dashed part of the orbit path shows where the satellite is in the earth's shadow,  

DLR